Погода в Туре

Погода в Туре : погода сейчас, прогноз погоды и архив. Всё, что Вы хотите узнать о погоде в Туре!

Хотите узнать прогноз погоды в Туре? Тогда Вам сюда: Погода в Туре

Поиск расширенной информации на нашем сайте:

Полезная информация: Мини погрузчик мксм 800 купить - купить мини погрузчики мксм-800.
Виза в Польшу

Другие новости

Новости СМИ2

Главная страница сайта

Новости сайта

02.10.2013

Напоминаем, что на нашем новом сайте вы можете получить высокодетализированные прогнозы погоды по пунктам России, СНГ и мира (включающие важные для авиации метеовеличины, такие как направление и скорость ветра, видимость, явления погоды, количество и форма облачности, нижняя и верхняя граница облачности), а также ознакомиться с разнообразными материалами по авиационной метеорологии и подборкой полезных ссылок на эту тему.

Сайт Метеоцентр.Азия посвящён разработке технологий оптимизации авиаметеорологического обслуживания, включая проектирование и перспективное создание нескольких автоматизированных авиаметеорологических систем:
- система выпуска высокодетальных прогностических карт явлений погоды для нижнего воздушного пространства по России и ближнему зарубежью;
- система верификации прогнозов TAF (выпускаемых синоптиками официальных АМСГ РФ и ближнего зарубежья) и AUTOTAF (выпускаемых сайтом Метеоцентр.Азия) - выявление ошибок, онлайн-сопоставление с фактической погодой METAR, автоматическое внесение коррективов в прогнозы при резком отклонении фактической погоды от прогноза, подсчёт оправдываемости прогнозов по элементам и в целом;
- система обработки, анализа и отображения авиаметеорологической информации для применения провайдерами метеорологической информации.

Рекомендуем: авиатуры в германию

Погода в Туре - сегодня

Время (UTC), дата Ветер
(°,м/с) 
Видим.   Явления Облачность Т
(°С)
Тd
(°С)
f(%) Тe
(°С)
Pmin
(гПа)
dP
(гПа)
Po
(мм)
O2
(г/м3)
Тmin Tmax R s Состояние
почвы
21 27.03.17 140 (ЮВ) н/о    10/0 верхняя 
[Cs]
-13 -14.3 90 -15  1020.5  0.4  746  317           
00 28.03.17 150 (ЮВ) 20000 м    10/3 1000 м средняя, верхняя 
[Sc|Ac lent|Cs]
-14.8 -16.1 90 -15  1020.6  -0.1  746  319  -14.8      38  равномерный
сухой снег
100% 
03 28.03.17 150 (ЮВ) 20000 м    10/10 600 м кучево-дожд. 
[Cb cap]
-9.8 -13.4 75 -12  1018.3  -1.8  745  313           
06 28.03.17 180 (Ю) 20000 м    10/10 600 м кучево-дожд. 
[Cb cap]
+2.2 -7 51 1015.1  -1.9  744  298           
09 28.03.17 250 (З) 2{10}  20000 м  слаб. ливневой снег  10/10 600 м кучево-дожд. 
[Cb cap]
+2.1 -3.7 65 +1  1015.4  0.3  744  298           
12 28.03.17 130 (ЮВ) 10 км  слаб. ливневой снег  10/10 600 м кучево-дожд. 
[Cb cap]
+0.7 -1.7 84 +1  1015.6  744  299    +3.1  0.5     
15 28.03.17 150 (ЮВ) н/о  слаб. ливневой снег  10/10 600 м кучево-дожд. 
[Cb cap]
+1.9 -1.8 76 +1  1014.6  -0.9  743  298           
18 28.03.17 030 (СВ) н/о  {ливн. осадки}  8/8 600 м кучево-дожд. 
[Cb cap]
+1.4 -2.7 74 +2  1014.5  -0.1  743  298           
21 28.03.17 120 (ЮВ) н/о    6/6 600 м кучево-дожд. 
[Cb cap]
+0.7 -3.3 75 1014.6  743  299           
00 29.03.17 150 (ЮВ) 20000 м    10/8 600 м кучево-дожд., средняя 
[Cb cap|Ac trans]
-0.3 -3.6 78 -2  1014  -0.7  743  300  -0.5    0.0  38  равномерный
сухой снег
100% 
03 29.03.17 200 (Ю) 10 км  слаб. ливневой снег  10/10 600 м кучево-дожд. 
[Cb cap]
+1.4 -1.8 79 -1  1012.2  -1.6  741  297           
06 29.03.17 220 (ЮЗ) 4{10}  20000 м  {ливн. осадки}  10/10 600 м кучево-дожд. 
[Cb cap]
+3.3 -1.7 70 +1  1011.3  -0.7  741  295           
09 29.03.17 190 (Ю) 20000 м    10/10 600 м кучево-дожд. 
[Cb cap]
+4.8 -1.2 65 +3  1010.1  -1  740  293           
12 29.03.17 180 (Ю) 4{10}  20000 м  слаб. ливневой дождь  10/10 600 м кучево-дожд. 
[Cb cap]
+5 -0.6 67 +3  1008.6  -1.4  739  292    +5.6  0.0     
15 29.03.17 130 (ЮВ) н/о  в посл. час ливневой дождь  10/10 600 м кучево-дожд. 
[Cb cap]
+4.8 +0.4 73 +4  1006.1  -2.6  737  292           
18 29.03.17 150 (ЮВ) н/о  {ливн. осадки}  8/8 600 м кучево-дожд. 
[Cb cap]
+4.5 -2.2 62 +2  1003.3  -2.7  735  292           
21 29.03.17 190 (Ю) 5-10{14}  н/о    10/10 600 м кучево-дожд. 
[Cb cap]
+6.5 -2.2 54 +5  1000.1  -2.9  733  289           
00 30.03.17 240 (ЮЗ) 2{15}  20000 м    6/6 600 м кучево-дожд. 
[Cb cap]
+4.8 -1.2 65 +4  1001.1  0.7  733  291  +4    0.3  33  равномерный
мокрый или
старый снег
100% 
03 30.03.17 250 (З) 8-15{15}  20000 м  {ливн. осадки}  6/6 600 м кучево-дожд. 
[Cb cap]
+5.4 -4.6 48 +2  1004.1  3.1  736  291           
06 30.03.17 280 (З) 5-10{13}  20000 м  {ливн. осадки}  8/8 600 м кучево-дожд. 
[Cb cap]
+4.4 -5.7 48 +2  1007.4  3.1  738  293           
09 30.03.17 270 (З) 5{11}  20000 м  {ливн. осадки}  6/6 600 м кучево-дожд. 
[Cb cap]
+5 -4 52 +3  1010.2  2.9  740  293           
12 30.03.17 310 (СЗ) 2{10}  20000 м  {ливн. осадки}  4/4 600 м кучево-дожд. 
[Cb cap]
+3.2 -4.7 56 +3  1013  2.5  742  296    +6.4  0.0     
15 30.03.17 тихо ()   н/о    ясно 
-3.2 -6 81 -3  1013.8  0.2  742  303           
18 30.03.17 тихо ()   н/о    ясно 
-7.3 -8.6 90 -7  1014.2  742  308           
21 30.03.17 140 (ЮВ) н/о    4/0 верхняя 
[Ci sp]
-10.3 -11.6 90 -10  1012.5  -2  741  311           
Время (UTC), дата Ветер
(°,м/с) 
Видим.   Явления Облачность Т
(°С)
Тd
(°С)
f(%) Тe
(°С)
Pmin
(гПа)
dP
(гПа)
Po
(мм)
O2
(г/м3)
Тmin Tmax R s Состояние
почвы

Для получения пояснительной информации подведите курсор к названию столбца.

ПОГОДА в Туре - архив

Всё, что Вы хотите узнать о погоде в Туре - удобно и подробно!

Выберите нужную дату (начиная с 1 января 2015* года) и нажмите кнопку "Найти".
Будут отображены архивные сводки погоды по пункту Тура, начиная с указанной даты.


Отображать данные в формате CSV (для использования в таблицах Excel)


Внимание! Наш архив погоды предназначен исключительно для личного некоммерческого использования в познавательных целях. Если Вам необходимы официальные справки о состоянии погоды (для производственных, юридических, коммерческих и т.п. целей), обращайтесь в органы Росгидромета.

*Примечание: данная дата относится к архиву по метеостанциям СССР (Россия, СНГ, Балтия).
Архив по метеостанциям Зарубежной Европы и Азии (кроме Китая) хранится 10 дней, по другим регионам земного шара (Китай, Африка, Америка, Австралия, Океания) - 1 день.

Тура - район местоположения метеостанции


Название, широта, долгота, высота метеостанции:
Тура 64.3°ш. 100.2°д. 168 м над ур. моря [Российская Федерация]

Дополнительная информация

В oтличие oт бoльшинства пoгoдных сайтoв мы публикуем пoдрoбную метеoинфoрмацию в детальнoм прoфессиoнальнoм фoрмате.

Характеристики температуры и влажнoсти вoздуха измеряются на высoте 2 м в тени вдали oт зданий и деревьев.
Скoрoсть ветра измеряется на высoте 10 м (на урoвне рoста челoвека скoрoсть ветра ниже в 1.5-2 раза). Если метеoстанция нахoдится в гoрoде или в лесу, тo скoрoсть ветра занижена на 2-4 м/с пo сравнению с oткрытым местoм. Скoрoсть ветра над акватoриями крупных рек и oзёр, а также на вершинах хoлмoв на 2-5 м/с выше, чем в oбычных услoвиях.
Атмoсфернoе давление в разных тoчках местнoсти мoжет значительнo oтличаться oт давления на метеoстанции, в зависимoсти oт услoвий рельефа (при пoдъёме на 10 м давление пoнижается примернo на 1 мм рт.ст.).